Time,TemperatureF,DewpointF,PressureIn,WindDirection,WindDirectionDegrees,WindSpeedMPH,WindSpeedGustMPH,Humidity,HourlyPrecipIn,Conditions,Clouds,dailyrainin,SolarRadiationWatts/m^2,SoftwareType,DateUTC
2013-05-08 08:35:00,77.1,71.9,30.03,SSE,161,2.0,4.0,84,0.00,,,0.00,545,Wunderground v.1.15,2013-05-08 18:35:00,
2013-05-08 08:40:00,77.2,72.0,30.03,SSE,161,3.0,3.0,84,0.00,,,0.00,559,Wunderground v.1.15,2013-05-08 18:40:00,
2013-05-08 08:45:00,77.3,72.1,30.03,SSE,161,2.0,3.0,84,0.00,,,0.00,582,Wunderground v.1.15,2013-05-08 18:45:00,
2013-05-08 08:50:00,77.3,71.7,30.03,SSE,160,3.0,3.0,83,0.00,,,0.00,596,Wunderground v.1.15,2013-05-08 18:50:00,
2013-05-08 08:55:00,77.5,71.9,30.03,South,175,2.0,6.0,83,0.00,,,0.00,608,Wunderground v.1.15,2013-05-08 18:55:00,
2013-05-08 09:00:00,77.5,72.3,30.03,South,175,1.0,4.0,84,0.00,,,0.00,633,Wunderground v.1.15,2013-05-08 19:00:00,
2013-05-08 09:10:00,77.9,73.0,30.04,South,188,3.0,5.0,85,0.00,,,0.00,670,Wunderground v.1.15,2013-05-08 19:10:00,
2013-05-08 09:15:00,78.3,72.7,30.04,SE,134,3.0,5.0,83,0.00,,,0.00,696,Wunderground v.1.15,2013-05-08 19:15:00,
2013-05-08 09:20:00,78.1,72.9,30.04,SSW,199,4.0,6.0,84,0.00,,,0.00,707,Wunderground v.1.15,2013-05-08 19:20:00,
2013-05-08 09:25:00,77.9,72.7,30.04,SSE,166,4.0,6.0,84,0.00,,,0.00,721,Wunderground v.1.15,2013-05-08 19:25:00,
2013-05-08 09:30:00,77.7,72.5,30.04,South,174,4.0,4.0,84,0.00,,,0.00,737,Wunderground v.1.15,2013-05-08 19:30:00,
2013-05-08 09:35:00,77.7,72.5,30.05,SSE,160,4.0,4.0,84,0.00,,,0.00,761,Wunderground v.1.15,2013-05-08 19:35:00,
2013-05-08 09:40:00,78.0,72.8,30.04,SSE,155,2.0,2.0,84,0.00,,,0.00,779,Wunderground v.1.15,2013-05-08 19:40:00,
2013-05-08 09:50:00,78.3,72.7,30.05,SSE,157,2.0,3.0,83,0.00,,,0.00,816,Wunderground v.1.15,2013-05-08 19:50:00,
2013-05-08 09:55:00,78.2,72.6,30.04,SSE,157,2.0,3.0,83,0.00,,,0.00,837,Wunderground v.1.15,2013-05-08 19:55:00,
2013-05-08 10:00:00,78.1,72.5,30.04,SSE,148,3.0,5.0,83,0.00,,,0.00,909,Wunderground v.1.15,2013-05-08 20:00:00,
2013-05-08 10:10:00,78.0,72.8,30.04,South,176,3.0,3.0,84,0.00,,,0.00,916,Wunderground v.1.15,2013-05-08 20:10:00,
2013-05-08 10:15:00,77.8,71.9,30.04,WSW,249,4.0,4.0,82,0.00,,,0.00,925,Wunderground v.1.15,2013-05-08 20:15:00,
2013-05-08 10:20:00,77.8,72.2,30.04,SW,219,4.0,4.0,83,0.00,,,0.00,958,Wunderground v.1.15,2013-05-08 20:20:00,
2013-05-08 10:25:00,78.2,72.3,30.04,SSE,161,4.0,4.0,82,0.00,,,0.00,942,Wunderground v.1.15,2013-05-08 20:25:00,
2013-05-08 10:30:00,78.4,72.1,30.04,SSW,192,3.0,3.0,81,0.00,,,0.00,970,Wunderground v.1.15,2013-05-08 20:30:00,
2013-05-08 10:35:00,78.6,71.5,30.04,SSW,195,3.0,3.0,79,0.00,,,0.00,1014,Wunderground v.1.15,2013-05-08 20:35:00,
2013-05-08 10:45:00,79.0,72.3,30.04,South,174,3.0,3.0,80,0.00,,,0.00,990,Wunderground v.1.15,2013-05-08 20:45:00,
2013-05-08 10:50:00,78.8,72.1,30.04,South,186,4.0,4.0,80,0.00,,,0.00,949,Wunderground v.1.15,2013-05-08 20:50:00,
2013-05-08 10:55:00,79.2,72.5,30.04,ESE,113,4.0,4.0,80,0.00,,,0.00,998,Wunderground v.1.15,2013-05-08 20:55:00,
2013-05-08 11:00:00,79.5,73.2,30.04,ESE,111,5.0,8.0,81,0.00,,,0.00,612,Wunderground v.1.15,2013-05-08 21:00:00,
2013-05-08 11:10:00,79.0,72.7,30.03,SSE,166,6.0,6.0,81,0.00,,,0.00,1016,Wunderground v.1.15,2013-05-08 21:10:00,
2013-05-08 11:15:00,78.8,72.1,30.03,SE,146,6.0,7.0,80,0.00,,,0.00,1005,Wunderground v.1.15,2013-05-08 21:15:00,
2013-05-08 11:20:00,78.7,72.4,30.03,SSW,199,6.0,6.0,81,0.00,,,0.00,981,Wunderground v.1.15,2013-05-08 21:20:00,
2013-05-08 11:25:00,79.1,72.8,30.03,South,178,4.0,6.0,81,0.00,,,0.00,888,Wunderground v.1.15,2013-05-08 21:25:00,
2013-05-08 11:30:00,79.3,73.3,30.03,SSE,155,4.0,4.0,82,0.00,,,0.00,1039,Wunderground v.1.15,2013-05-08 21:30:00,
2013-05-08 11:40:00,78.9,72.9,30.03,SW,234,4.0,6.0,82,0.00,,,0.00,1143,Wunderground v.1.15,2013-05-08 21:40:00,
2013-05-08 11:45:00,78.8,73.2,30.03,SW,214,5.0,6.0,83,0.00,,,0.00,1143,Wunderground v.1.15,2013-05-08 21:45:00,
2013-05-08 11:50:00,79.0,73.0,30.03,South,186,4.0,4.0,82,0.00,,,0.00,1023,Wunderground v.1.15,2013-05-08 21:50:00,
2013-05-08 11:55:00,79.4,73.8,30.02,East,101,4.0,4.0,83,0.00,,,0.00,406,Wunderground v.1.15,2013-05-08 21:55:00,
2013-05-08 12:00:00,79.5,73.2,30.03,SE,133,4.0,4.0,81,0.00,,,0.00,1143,Wunderground v.1.15,2013-05-08 22:00:00,
2013-05-08 12:10:00,79.4,73.1,30.02,SE,142,5.0,5.0,81,0.00,,,0.00,1143,Wunderground v.1.15,2013-05-08 22:10:00,
2013-05-08 12:15:00,79.1,72.8,30.02,SSW,195,6.0,6.0,81,0.00,,,0.00,1222,Wunderground v.1.15,2013-05-08 22:15:00,
2013-05-08 12:20:00,79.3,73.3,30.02,South,184,5.0,5.0,82,0.00,,,0.00,1283,Wunderground v.1.15,2013-05-08 22:20:00,
2013-05-08 12:30:00,79.4,73.1,30.02,SSW,198,4.0,4.0,81,0.00,,,0.00,559,Wunderground v.1.15,2013-05-08 22:30:00,
2013-05-08 12:35:00,79.3,73.0,30.02,SSE,163,5.0,7.0,81,0.00,,,0.00,1285,Wunderground v.1.15,2013-05-08 22:35:00,
2013-05-08 12:40:00,79.3,73.0,30.02,SSW,194,4.0,4.0,81,0.00,,,0.00,1288,Wunderground v.1.15,2013-05-08 22:40:00,
2013-05-08 12:45:00,79.9,73.2,30.01,SSW,209,3.0,4.0,80,0.00,,,0.00,893,Wunderground v.1.15,2013-05-08 22:45:00,
2013-05-08 12:50:00,79.9,73.2,30.01,SSW,199,4.0,4.0,80,0.00,,,0.00,1181,Wunderground v.1.15,2013-05-08 22:50:00,
2013-05-08 12:55:00,80.1,73.0,30.01,SE,132,3.0,8.0,79,0.00,,,0.00,1125,Wunderground v.1.15,2013-05-08 22:55:00,
2013-05-08 13:00:00,80.1,73.7,30.01,SE,137,4.0,6.0,81,0.00,,,0.00,1116,Wunderground v.1.15,2013-05-08 23:00:00,
2013-05-08 13:10:00,80.5,73.4,30.00,SE,146,4.0,4.0,79,0.00,,,0.00,1125,Wunderground v.1.15,2013-05-08 23:10:00,
2013-05-08 13:15:00,80.6,73.1,30.00,SSE,150,4.0,10.0,78,0.00,,,0.00,1037,Wunderground v.1.15,2013-05-08 23:15:00,
2013-05-08 13:25:00,80.8,73.7,30.00,SSE,167,4.0,6.0,79,0.00,,,0.00,1083,Wunderground v.1.15,2013-05-08 23:25:00,
2013-05-08 13:30:00,80.5,73.8,30.00,SE,138,4.0,5.0,80,0.00,,,0.00,1046,Wunderground v.1.15,2013-05-08 23:30:00,
2013-05-08 13:35:00,80.5,73.8,30.00,SSE,161,5.0,6.0,80,0.00,,,0.00,1063,Wunderground v.1.15,2013-05-08 23:35:00,
2013-05-08 13:40:00,79.9,73.5,30.00,SE,146,5.0,6.0,81,0.00,,,0.00,1158,Wunderground v.1.15,2013-05-08 23:40:00,
2013-05-08 13:45:00,79.7,73.7,30.00,South,186,5.0,6.0,82,0.00,,,0.00,1118,Wunderground v.1.15,2013-05-08 23:45:00,
2013-05-08 13:50:00,79.8,73.8,30.00,SE,134,5.0,9.0,82,0.00,,,0.00,1150,Wunderground v.1.15,2013-05-08 23:50:00,
2013-05-08 13:55:00,79.4,73.1,30.00,SSE,148,5.0,9.0,81,0.00,,,0.00,304,Wunderground v.1.15,2013-05-08 23:55:00,
2013-05-08 14:00:00,79.0,73.0,30.00,SSE,156,5.0,9.0,82,0.00,,,0.00,503,Wunderground v.1.15,2013-05-09 00:00:00,
2013-05-08 14:10:00,79.1,73.5,30.00,SE,142,4.0,6.0,83,0.00,,,0.00,705,Wunderground v.1.15,2013-05-09 00:10:00,
2013-05-08 14:15:00,79.9,73.5,30.00,SSE,155,4.0,6.0,81,0.00,,,0.00,1271,Wunderground v.1.15,2013-05-09 00:15:00,
2013-05-08 14:20:00,80.1,73.4,29.99,SE,140,4.0,5.0,80,0.00,,,0.00,649,Wunderground v.1.15,2013-05-09 00:20:00,
2013-05-08 14:30:00,79.9,72.8,30.00,South,188,5.0,5.0,79,0.00,,,0.00,369,Wunderground v.1.15,2013-05-09 00:30:00,
2013-05-08 14:35:00,79.4,72.3,29.99,SSW,203,5.0,5.0,79,0.00,,,0.00,1085,Wunderground v.1.15,2013-05-09 00:35:00,
2013-05-08 14:40:00,79.5,72.8,29.99,SSW,208,4.0,4.0,80,0.00,,,0.00,645,Wunderground v.1.15,2013-05-09 00:40:00,
2013-05-08 14:45:00,79.3,72.6,29.99,South,178,4.0,4.0,80,0.00,,,0.00,237,Wunderground v.1.15,2013-05-09 00:45:00,
2013-05-08 14:50:00,78.9,72.6,29.98,South,188,4.0,4.0,81,0.00,,,0.00,461,Wunderground v.1.15,2013-05-09 00:50:00,
2013-05-08 14:55:00,78.9,72.9,29.98,SE,146,2.0,4.0,82,0.00,,,0.00,527,Wunderground v.1.15,2013-05-09 00:55:00,
2013-05-08 15:00:00,79.1,73.1,29.98,SSW,206,3.0,6.0,82,0.00,,,0.00,823,Wunderground v.1.15,2013-05-09 01:00:00,
2013-05-08 15:10:00,79.0,73.4,29.98,SE,137,3.0,6.0,83,0.00,,,0.00,352,Wunderground v.1.15,2013-05-09 01:10:00,
2013-05-08 15:20:00,79.0,73.7,29.98,SE,143,4.0,4.0,84,0.00,,,0.00,390,Wunderground v.1.15,2013-05-09 01:20:00,
2013-05-08 15:25:00,78.8,73.6,29.98,SSE,163,4.0,4.0,84,0.00,,,0.00,564,Wunderground v.1.15,2013-05-09 01:25:00,
2013-05-08 15:30:00,78.8,73.9,29.98,SSW,208,2.0,7.0,85,0.00,,,0.00,438,Wunderground v.1.15,2013-05-09 01:30:00,
2013-05-08 15:35:00,78.8,73.6,29.98,SSE,150,3.0,7.0,84,0.00,,,0.00,487,Wunderground v.1.15,2013-05-09 01:35:00,
2013-05-08 15:40:00,78.7,73.5,29.98,South,169,4.0,4.0,84,0.00,,,0.00,904,Wunderground v.1.15,2013-05-09 01:40:00,
2013-05-08 15:45:00,79.0,73.7,29.97,SSE,149,3.0,4.0,84,0.00,,,0.00,911,Wunderground v.1.15,2013-05-09 01:45:00,
2013-05-08 15:55:00,79.3,74.0,29.97,SSE,154,3.0,7.0,84,0.00,,,0.00,248,Wunderground v.1.15,2013-05-09 01:55:00,
2013-05-08 16:00:00,78.7,73.5,29.97,SSE,168,3.0,4.0,84,0.00,,,0.00,253,Wunderground v.1.15,2013-05-09 02:00:00,
2013-05-08 16:10:00,78.1,73.2,29.98,SW,231,3.0,3.0,85,0.00,,,0.00,262,Wunderground v.1.15,2013-05-09 02:10:00,
2013-05-08 16:15:00,77.8,72.9,29.98,SW,217,4.0,6.0,85,0.00,,,0.00,237,Wunderground v.1.15,2013-05-09 02:15:00,
2013-05-08 16:20:00,77.5,73.3,29.98,SSW,209,5.0,6.0,87,0.00,,,0.00,200,Wunderground v.1.15,2013-05-09 02:20:00,
2013-05-08 16:25:00,77.4,73.2,29.98,South,169,4.0,6.0,87,0.00,,,0.00,244,Wunderground v.1.15,2013-05-09 02:25:00,
2013-05-08 16:30:00,77.3,73.1,29.97,South,177,3.0,3.0,87,0.00,,,0.00,190,Wunderground v.1.15,2013-05-09 02:30:00,
2013-05-08 16:35:00,77.2,73.4,29.98,SSE,167,2.0,5.0,88,0.00,,,0.00,192,Wunderground v.1.15,2013-05-09 02:35:00,
2013-05-08 16:40:00,77.2,73.4,29.98,South,169,2.0,4.0,88,0.00,,,0.00,137,Wunderground v.1.15,2013-05-09 02:40:00,
2013-05-08 16:50:00,76.8,73.0,29.98,South,169,1.0,2.0,88,0.00,,,0.00,123,Wunderground v.1.15,2013-05-09 02:50:00,
2013-05-08 16:55:00,76.8,73.3,29.98,South,169,1.0,2.0,89,0.00,,,0.00,130,Wunderground v.1.15,2013-05-09 02:55:00,
2013-05-08 17:00:00,76.8,73.0,29.98,South,169,1.0,1.0,88,0.00,,,0.00,105,Wunderground v.1.15,2013-05-09 03:00:00,
2013-05-08 17:10:00,76.7,73.2,29.98,South,169,1.0,1.0,89,0.00,,,0.00,88,Wunderground v.1.15,2013-05-09 03:10:00,
2013-05-08 17:15:00,76.7,73.2,29.98,South,169,0.0,1.0,89,0.00,,,0.00,121,Wunderground v.1.15,2013-05-09 03:15:00,
2013-05-08 17:20:00,76.6,73.4,29.98,SSW,196,2.0,5.0,90,0.00,,,0.00,156,Wunderground v.1.15,2013-05-09 03:20:00,
2013-05-08 17:25:00,76.5,73.3,29.98,South,188,3.0,5.0,90,0.00,,,0.00,165,Wunderground v.1.15,2013-05-09 03:25:00,
2013-05-08 17:30:00,76.5,73.3,29.98,South,190,2.0,4.0,90,0.00,,,0.00,107,Wunderground v.1.15,2013-05-09 03:30:00,
2013-05-08 17:35:00,76.5,73.3,29.99,South,190,1.0,4.0,90,0.00,,,0.00,79,Wunderground v.1.15,2013-05-09 03:35:00,
2013-05-08 17:40:00,76.2,73.1,29.99,South,191,2.0,2.0,90,0.00,,,0.00,60,Wunderground v.1.15,2013-05-09 03:40:00,
2013-05-08 17:50:00,75.9,73.1,29.99,South,191,0.0,2.0,91,0.00,,,0.00,69,Wunderground v.1.15,2013-05-09 03:50:00,
2013-05-08 17:55:00,75.9,73.1,29.99,South,191,1.0,3.0,91,0.00,,,0.00,63,Wunderground v.1.15,2013-05-09 03:55:00,
2013-05-08 18:00:00,75.7,72.9,29.99,South,191,1.0,1.0,91,0.00,,,0.00,53,Wunderground v.1.15,2013-05-09 04:00:00,
2013-05-08 18:05:00,75.6,72.8,29.99,South,191,1.0,1.0,91,0.00,,,0.00,35,Wunderground v.1.15,2013-05-09 04:05:00,
2013-05-08 18:10:00,75.6,72.8,29.99,South,191,1.0,1.0,91,0.00,,,0.00,28,Wunderground v.1.15,2013-05-09 04:10:00,
2013-05-08 18:15:00,75.5,72.7,29.99,South,191,0.0,1.0,91,0.00,,,0.00,19,Wunderground v.1.15,2013-05-09 04:15:00,
2013-05-08 18:20:00,75.4,72.9,30.00,South,191,0.0,0.0,92,0.00,,,0.00,18,Wunderground v.1.15,2013-05-09 04:20:00,
2013-05-08 18:25:00,75.4,72.9,30.00,South,191,0.0,0.0,92,0.00,,,0.00,14,Wunderground v.1.15,2013-05-09 04:25:00,
2013-05-08 18:30:00,75.3,73.1,30.00,South,191,0.0,0.0,93,0.00,,,0.00,11,Wunderground v.1.15,2013-05-09 04:30:00,
2013-05-08 18:35:00,75.2,73.0,30.00,South,191,0.0,0.0,93,0.00,,,0.00,9,Wunderground v.1.15,2013-05-09 04:35:00,
2013-05-08 18:40:00,75.1,72.9,30.00,South,191,1.0,1.0,93,0.00,,,0.00,5,Wunderground v.1.15,2013-05-09 04:40:00,
2013-05-08 18:50:00,74.8,73.0,30.00,South,191,1.0,1.0,94,0.00,,,0.00,0,Wunderground v.1.15,2013-05-09 04:50:00,
2013-05-08 18:55:00,74.7,72.9,30.00,South,191,0.0,1.0,94,0.00,,,0.00,0,Wunderground v.1.15,2013-05-09 04:55:00,
2013-05-08 19:00:00,74.4,72.6,30.01,South,191,0.0,0.0,94,0.00,,,0.00,0,Wunderground v.1.15,2013-05-09 05:00:00,
2013-05-08 19:10:00,74.0,72.5,30.01,South,191,0.0,0.0,95,0.00,,,0.00,0,Wunderground v.1.15,2013-05-09 05:10:00,
2013-05-08 19:15:00,73.9,72.7,30.02,South,191,0.0,0.0,96,0.00,,,0.00,0,Wunderground v.1.15,2013-05-09 05:15:00,
2013-05-08 19:20:00,73.7,72.5,30.02,South,191,0.0,0.0,96,0.00,,,0.00,0,Wunderground v.1.15,2013-05-09 05:20:00,
2013-05-08 19:25:00,73.5,72.3,30.03,South,191,0.0,0.0,96,0.00,,,0.00,0,Wunderground v.1.15,2013-05-09 05:25:00,
2013-05-08 19:30:00,73.3,72.1,30.03,South,191,0.0,0.0,96,0.00,,,0.00,0,Wunderground v.1.15,2013-05-09 05:30:00,
2013-05-08 19:40:00,73.0,72.1,30.03,South,191,0.0,0.0,97,0.00,,,0.00,0,Wunderground v.1.15,2013-05-09 05:40:00,
2013-05-08 19:45:00,72.8,71.9,30.03,South,191,0.0,0.0,97,0.00,,,0.00,0,Wunderground v.1.15,2013-05-09 05:45:00,
2013-05-08 19:50:00,72.6,71.7,30.03,South,191,0.0,0.0,97,0.00,,,0.00,0,Wunderground v.1.15,2013-05-09 05:50:00,
2013-05-08 19:55:00,72.4,71.5,30.04,South,191,0.0,0.0,97,0.00,,,0.00,0,Wunderground v.1.15,2013-05-09 05:55:00,
2013-05-08 20:00:00,72.3,71.7,30.04,South,191,0.0,0.0,98,0.00,,,0.00,0,Wunderground v.1.15,2013-05-09 06:00:00,
2013-05-08 20:10:00,72.2,71.9,30.04,South,191,0.0,0.0,99,0.00,,,0.00,0,Wunderground v.1.15,2013-05-09 06:10:00,
2013-05-08 20:15:00,72.2,71.9,30.04,South,191,0.0,0.0,99,0.00,,,0.00,0,Wunderground v.1.15,2013-05-09 06:15:00,
2013-05-08 20:25:00,72.2,71.9,30.04,South,191,0.0,0.0,99,0.00,,,0.00,0,Wunderground v.1.15,2013-05-09 06:25:00,
2013-05-08 20:30:00,72.2,71.9,30.05,South,191,0.0,0.0,99,0.00,,,0.00,0,Wunderground v.1.15,2013-05-09 06:30:00,
2013-05-08 20:35:00,72.1,71.8,30.05,South,191,0.0,0.0,99,0.00,,,0.00,0,Wunderground v.1.15,2013-05-09 06:35:00,
2013-05-08 20:40:00,72.0,71.7,30.05,South,191,0.0,0.0,99,0.00,,,0.00,0,Wunderground v.1.15,2013-05-09 06:40:00,
2013-05-08 20:45:00,71.8,71.5,30.05,South,191,0.0,0.0,99,0.00,,,0.00,0,Wunderground v.1.15,2013-05-09 06:45:00,
2013-05-08 20:50:00,71.6,71.3,30.05,South,191,0.0,0.0,99,0.00,,,0.00,0,Wunderground v.1.15,2013-05-09 06:50:00,
2013-05-08 21:00:00,71.3,71.3,30.06,South,191,0.0,0.0,100,0.00,,,0.00,0,Wunderground v.1.15,2013-05-09 07:00:00,
2013-05-08 21:10:00,71.3,71.3,30.06,South,191,0.0,0.0,100,0.00,,,0.00,0,Wunderground v.1.15,2013-05-09 07:10:00,
2013-05-08 21:15:00,71.3,71.3,30.06,SSW,192,0.0,0.0,100,0.00,,,0.00,0,Wunderground v.1.15,2013-05-09 07:15:00,
2013-05-08 21:20:00,71.3,71.3,30.06,SSW,212,0.0,0.0,100,0.00,,,0.00,0,Wunderground v.1.15,2013-05-09 07:20:00,
2013-05-08 21:25:00,71.3,71.3,30.06,SW,225,0.0,0.0,100,0.00,,,0.00,0,Wunderground v.1.15,2013-05-09 07:25:00,
2013-05-08 21:30:00,71.3,71.3,30.06,SW,225,0.0,0.0,100,0.00,,,0.00,0,Wunderground v.1.15,2013-05-09 07:30:00,
2013-05-08 21:35:00,71.3,71.3,30.06,SW,225,0.0,0.0,100,0.00,,,0.00,0,Wunderground v.1.15,2013-05-09 07:35:00,
2013-05-08 21:45:00,71.2,70.9,30.06,SW,225,0.0,0.0,99,0.00,,,0.00,0,Wunderground v.1.15,2013-05-09 07:45:00,
2013-05-08 21:50:00,71.1,70.8,30.06,SW,225,0.0,0.0,99,0.00,,,0.00,0,Wunderground v.1.15,2013-05-09 07:50:00,
2013-05-08 21:55:00,70.9,70.6,30.06,SW,225,0.0,0.0,99,0.00,,,0.00,0,Wunderground v.1.15,2013-05-09 07:55:00,
2013-05-08 22:00:00,70.6,70.3,30.06,SW,225,0.0,0.0,99,0.00,,,0.00,0,Wunderground v.1.15,2013-05-09 08:00:00,
2013-05-08 22:10:00,70.1,69.5,30.06,SW,225,0.0,0.0,98,0.00,,,0.00,0,Wunderground v.1.15,2013-05-09 08:10:00,
2013-05-08 22:15:00,70.0,69.4,30.06,SW,225,0.0,0.0,98,0.00,,,0.00,0,Wunderground v.1.15,2013-05-09 08:15:00,
2013-05-08 22:20:00,70.0,69.4,30.07,SW,225,0.0,0.0,98,0.00,,,0.00,0,Wunderground v.1.15,2013-05-09 08:20:00,
2013-05-08 22:25:00,70.0,69.1,30.07,SW,227,0.0,0.0,97,0.00,,,0.00,0,Wunderground v.1.15,2013-05-09 08:25:00,
2013-05-08 22:30:00,70.1,69.2,30.07,SW,227,0.0,0.0,97,0.00,,,0.00,0,Wunderground v.1.15,2013-05-09 08:30:00,
2013-05-08 22:35:00,70.2,69.3,30.07,SW,227,0.0,0.0,97,0.00,,,0.00,0,Wunderground v.1.15,2013-05-09 08:35:00,
2013-05-08 22:40:00,70.3,69.1,30.07,SW,227,0.0,0.0,96,0.00,,,0.00,0,Wunderground v.1.15,2013-05-09 08:40:00,
2013-05-08 22:50:00,70.3,69.4,30.07,SW,229,0.0,0.0,97,0.00,,,0.00,0,Wunderground v.1.15,2013-05-09 08:50:00,
2013-05-08 22:55:00,70.3,69.4,30.07,SW,229,0.0,0.0,97,0.00,,,0.00,0,Wunderground v.1.15,2013-05-09 08:55:00,
2013-05-08 23:00:00,70.3,69.4,30.07,SW,229,0.0,0.0,97,0.00,,,0.00,0,Wunderground v.1.15,2013-05-09 09:00:00,
2013-05-08 23:10:00,70.2,69.3,30.07,SW,229,0.0,0.0,97,0.00,,,0.00,0,Wunderground v.1.15,2013-05-09 09:10:00,
2013-05-08 23:15:00,70.2,69.3,30.07,SW,229,0.0,0.0,97,0.00,,,0.00,0,Wunderground v.1.15,2013-05-09 09:15:00,
2013-05-08 23:20:00,70.1,69.5,30.07,SW,229,0.0,0.0,98,0.00,,,0.00,0,Wunderground v.1.15,2013-05-09 09:20:00,
2013-05-08 23:25:00,70.1,69.5,30.07,SW,229,0.0,0.0,98,0.00,,,0.00,0,Wunderground v.1.15,2013-05-09 09:25:00,
2013-05-08 23:30:00,70.1,69.5,30.07,SW,229,0.0,0.0,98,0.00,,,0.00,0,Wunderground v.1.15,2013-05-09 09:30:00,
2013-05-08 23:35:00,70.0,69.4,30.07,SW,229,0.0,0.0,98,0.00,,,0.00,0,Wunderground v.1.15,2013-05-09 09:35:00,
2013-05-08 23:40:00,69.9,69.0,30.07,SW,229,0.0,0.0,97,0.00,,,0.00,0,Wunderground v.1.15,2013-05-09 09:40:00,
2013-05-08 23:50:00,69.7,68.8,30.06,SW,230,0.0,0.0,97,0.00,,,0.00,0,Wunderground v.1.15,2013-05-09 09:50:00,
2013-05-08 23:55:00,69.6,68.7,30.06,SW,230,0.0,0.0,97,0.00,,,0.00,0,Wunderground v.1.15,2013-05-09 09:55:00,